Location: Amsterdam
(30.7274°N, 84.4357°W)
Time: 02:01:24
(UTC+00:00)

Transit 2A Rocket - Pass Details

Date: 19 February 2026
Orbit: 583 x 900 km, 66.7° (Epoch: 5 March)

Event Time Altitude Azimuth Distance (km) Brightness Sun altitude
Rises 06:44:26 0° 335° (NNW) 3,281 - -67.0°
Reaches altitude 10° 06:46:57 10° 336° (NNW) 2,298 - -66.7°
Maximum altitude 06:52:12 84° 65° (ENE) 717 - -66.0°
Drops below altitude 10° 06:56:55 10° 154° (SSE) 2,078 - -65.3°
Sets 06:59:07 0° 155° (SSE) 2,943 - -65.0°
